GALILEO B (67161 NORAD) Tracking and Keplerian Element Data

This shows tracking and keplerian element data for the satellite.

Feedback or suggestion? Click here.




ElementValue
Catalog67161
NameGALILEO B
Epoch Orbit5
Epoch Day353.30200568
Epoch Year2025
RAAN107.1916
Inclination54.2272
Eccentricity0.0004586
Argument of Perigee255.0301
Mean Anonmoly104.8802
Mean Motion1.72972192
Decay Rate-5E-08
L11 67161U 25302B 25353.30200568 -.00000005 00000+0 00000+0 0 9999
L22 67161 54.2272 107.1916 0004586 255.0301 104.8802 1.72972192 57



Live tracking and technical data element details for GALILEO B (NORAD 67161). GALILEO B can be tracked NOW for your location showing map with azimuth and elevation plus other details from your city location.







IsCatalogInMostPopularTable: catalog: 67161, numindb: 12
Update: records affected: 1



GetName: 67161 GALILEO B

Hit Count: updated at: Fri, 16 Jan 2026 10:09:24 GMT